PulseSat

PulseSat

GSAT0211 (GALILEO 14)

Last updated on Dec. 10, 2018, 12:08 a.m. UTC

1 41549U 16030A   18342.82194893 -.00000054  00000-0  00000+0 0  9994
2 41549  56.7408 297.1862 0004130 296.8030  63.1335  1.70474362 15816
UTC
Height (km)
Latitude
Longitude
Inclination
Orbital Period

Next 30 passes for location: Hong Kong

Rise time Rise Azimuth (degrees) Set time Set Azimuth (degrees) Duration Max altitude (degrees)

No matching passes for this satellites

PulseSat

PulseSat is the new satellites software and hardware trackering solution by Pulsely.
Satellite Two Line Element Set source: US Air Force Space Command

Download PulseSat for iOS
© 2017 Pulsely Limited